Weather History for Lancaster, OH

Change the Weather History Date:

Tuesday, November 13, 2012

  Actual Average Record
Temperature  
Mean Temperature 32 °F -  
Max Temperature 41 °F 50 °F 79 °F (1955)
Min Temperature 23 °F 29 °F 17 °F (1977)
Degree Days  
Heating Degree Days 32    
Moisture  
Dew Point 23 °F    
Average Humidity 73    
Maximum Humidity 89    
Minimum Humidity 49    
Precipitation  
Precipitation 0.00 in - - ()
Sea Level Pressure  
Sea Level Pressure 30.49 in    
Wind  
Wind Speed 3 mph (West)    
Max Wind Speed 8 mph    
Max Gust Speed -    
Visibility 10 miles    
Events      
Averages and records for this station are not official NWS values.
T = Trace of Precipitation, MM = Missing Value Source: NWS Daily Summary

Daily Weather History Graph

Daily Weather History Graph

Search for Another Location

Airport:

Trip Planner

Search our weather history database for the weather conditions in past years. The results will help you decide how hot, cold, wet, or windy it might be!

Date:

Astronomy

Nov. 13, 2012 Rise Set
Actual Time 7:13 AM EST 5:16 PM EST
Civil Twilight 6:44 AM EST 5:44 PM EST
Nautical Twilight 6:12 AM EST 6:17 PM EST
Astronomical Twilight 5:40 AM EST 6:49 PM EST
Moon 6:50 AM EST (11/13) 5:08 PM EST (11/13)
Length of Visible Light 11h 00m
Length of Day
10h 02m
Waning Crescent, 0% of the Moon is Illuminated
Nov 13
Waning Crescent
Nov 13
New
Nov 20
First Quarter
Nov 28
Full
Dec 6
Last Quarter

Hourly Weather History & Observations

Time (EST) Temp. Windchill Dew Point Humidity Pressure Visibility Wind Dir Wind Speed Gust Speed Precip Events Conditions
12:53 AM 30.0 °F 26.5 °F 26.1 °F 85% 30.42 in 10.0 mi SW 3.5 mph - N/A   Clear
1:53 AM 28.9 °F - 26.1 °F 89% 30.42 in 10.0 mi Calm Calm - N/A   Clear
2:53 AM 28.0 °F - 24.1 °F 85% 30.42 in 10.0 mi Calm Calm - N/A   Clear
3:53 AM 28.9 °F 23.9 °F 24.1 °F 82% 30.43 in 10.0 mi WSW 4.6 mph - N/A   Clear
4:53 AM 28.0 °F 22.8 °F 23.0 °F 81% 30.43 in 10.0 mi WSW 4.6 mph - N/A   Clear
5:53 AM 28.0 °F 24.2 °F 23.0 °F 81% 30.44 in 10.0 mi SSW 3.5 mph - N/A   Clear
6:53 AM 28.0 °F 22.8 °F 23.0 °F 81% 30.47 in 10.0 mi SW 4.6 mph - N/A   Clear
7:53 AM 28.0 °F 24.2 °F 24.1 °F 85% 30.49 in 10.0 mi WSW 3.5 mph - N/A   Clear
8:53 AM 32.0 °F 27.5 °F 26.1 °F 79% 30.50 in 10.0 mi West 4.6 mph - N/A   Clear
9:53 AM 36.0 °F 31.1 °F 28.0 °F 73% 30.51 in 10.0 mi West 5.8 mph - N/A   Clear
10:53 AM 37.9 °F 33.5 °F 23.0 °F 55% 30.51 in 10.0 mi NW 5.8 mph - N/A   Clear
11:53 AM 39.9 °F 34.5 °F 23.0 °F 51% 30.50 in 10.0 mi West 8.1 mph - N/A   Scattered Clouds
12:53 PM 37.9 °F 33.5 °F 21.9 °F 53% 30.48 in 10.0 mi WNW 5.8 mph - N/A   Mostly Cloudy
1:53 PM 41.0 °F 36.4 °F 23.0 °F 49% 30.47 in 10.0 mi Variable 6.9 mph - N/A   Mostly Cloudy
2:53 PM 39.0 °F 34.8 °F 23.0 °F 53% 30.48 in 10.0 mi WNW 5.8 mph - N/A   Overcast
3:53 PM 37.9 °F 35.5 °F 21.9 °F 53% 30.49 in 10.0 mi WNW 3.5 mph - N/A   Scattered Clouds
4:53 PM 37.0 °F 33.3 °F 23.0 °F 57% 30.49 in 10.0 mi NW 4.6 mph - N/A   Mostly Cloudy
5:53 PM 37.0 °F 34.5 °F 23.0 °F 57% 30.50 in 10.0 mi NW 3.5 mph - N/A   Overcast
6:53 PM 30.9 °F - 23.0 °F 72% 30.51 in 10.0 mi Calm Calm - N/A   Clear
7:53 PM 28.0 °F - 24.1 °F 85% 30.52 in 10.0 mi Calm Calm - N/A   Partly Cloudy
8:53 PM 28.0 °F - 24.1 °F 85% 30.54 in 10.0 mi Calm Calm - N/A   Clear
9:53 PM 26.1 °F - 21.9 °F 84% 30.55 in 10.0 mi Calm Calm - N/A   Clear
10:53 PM 24.1 °F - 19.9 °F 84% 30.55 in 10.0 mi Calm Calm - N/A   Clear
11:53 PM 23.0 °F - 19.0 °F 85% 30.55 in 9.0 mi Calm Calm - N/A   Clear